313  
ASUS41 KPHI 170412  
RWRPHI  
 
REGIONAL WEATHER ROUNDUP  
NATIONAL WEATHER SERVICE MOUNT HOLLY NJ  
1200 AM EDT WED JUL 17 2019  
 
NOTE: "FAIR" INDICATES FEW OR NO CLOUDS BELOW 12,000 FEET WITH NO  
SIGNIFICANT WEATHER AND/OR S TO VISIBILITY
.  
 
* = STATION DOES NOT REPORT PRECIPITATION (E.G. RAIN, SNOW, ETC.)  
OR FOG.
 
 
NJZ015>026-170500-  
SOUTHERN NEW JERSEY  
 
CITY SKY/WX TMP DP RH WIND PRES REMARKS
 
POMONA FAIR 80 75 84 S5 30.04S  
WILDWOOD* FAIR 79 76 90 S5 30.05S  
MILLVILLE FAIR 79 77 94 CALM 30.03F  
WRIGHTSTOWN CLEAR 75 73 91 S6 30.01F  
MOUNT HOLLY N/A 78 72 81 CALM 30.02F  
TRENTON FAIR 77 67 71 SW5 30.02F  
 

 
NJZ001>014-170500-  
NORTHERN NEW JERSEY  
 
CITY SKY/WX TMP DP RH WIND PRES REMARKS
 
SUSSEX FAIR 74 69 85 CALM 30.02F  
ANDOVER* N/A 74 71 91 CALM 30.03F  
MORRISTOWN FAIR 77 70 78 SW5 30.01S  
NEWARK MOCLDY 82 69 64 SW7 30.00F  
TETERBORO FAIR 83 69 62 S8 29.98F  
CALDWELL FAIR 83 69 62 CALM 30.01S  
SOMERVILLE FAIR 79 66 64 SW3 30.00F  
ALLAIRE* FAIR 77 71 82 SW8 30.04F  
TOMS RIVER* FAIR 77 32 19 W3 30.04F  
 

 
PAZ043-044-047-054-055-060>062-066>071-170500-  
EASTERN PENNSYLVANIA  
 
CITY SKY/WX TMP DP RH WIND PRES REMARKS
 
PHILADELPHIA CLOUDY 81 73 76 S6 30.03F  
NORTH PHILA N/A 77 72 84 CALM 30.04F  
BLUE BELL* MOCLDY 73 71 95 MISG 30.04F  
DOYLESTOWN FAIR 77 66 68 CALM 30.03F  
QUAKERTOWN* PTCLDY 72 72 100 CALM 30.05  
PERKASIE* CLOUDY 72 72 100 CALM 30.05F  
POTTSTOWN FAIR 73 72 96 CALM 30.05F  
LANCASTER FAIR 76 73 91 CALM 30.04F  
COATESVILLE FAIR 75 70 83 CALM 30.06F  
WEST CHESTER FAIR 75 72 88 CALM 30.05S  
READING FAIR 74 73 97 S3 30.03F  
ALLENTOWN MOCLDY 77 67 71 CALM 30.03F  
QN CITY/ALNTWN CLOUDY 77 66 69 CALM 30.04F  
MOUNT POCONO FAIR 69 68 96 W8 30.10F  
HAZLETON MOCLDY 70 68 94 CALM 30.12F  
LEHIGHTON CLOUDY 73 70 88 CALM 30.05S  
WILKES BARRE LGT RAIN 73 71 93 SE3 30.05F  
 

 
DEZALL-MDZ008-012-015-019-020-170500-  
DELAWARE AND EASTERN MARYLAND  
 
CITY SKY/WX TMP DP RH WIND PRES REMARKS
 
WILMINGTON FAIR 81 76 84 SE3 30.04F  
DOVER CLOUDY 82 73 74 S9 30.03S  
CHESWOLD PTCLDY 81 75 83 CALM 30.03S  
GEORGETOWN FAIR 80 71 74 S5 30.05F  
EASTON FAIR 83 73 70 CALM 30.07S  
STEVENSVILLE FAIR 82 73 74 SW5 30.03S  
PATUXENT FAIR 80 72 76 SW6 30.03F  
OCEAN CITY FAIR 75 70 84 CALM 30.06S  
WALLOPS ISLAND FAIR 80 73 79 S5 30.06F  
CAMBRIDGE CLEAR 81 75 83 CALM 30.04S  
SALISBURY FAIR 76 71 85 SE3 30.05S  
 

 
PAZ001-021-NYZ056-072-MDZ011-DCZ001-170500-  
OTHER NEARBY LOCATIONS  
 
CITY SKY/WX TMP DP RH WIND PRES REMARKS
 
HARRISBURG CLOUDY 74 71 91 CALM 30.03F  
STATE COLLEGE FAIR 74 70 86 SW5 30.06S  
WILLIAMSPORT FAIR 74 70 87 E3 30.02S  
BINGHAMTON CLOUDY 69 66 90 SW7 30.04F  
NEW YORK CITY FAIR 82 69 64 VRB7 30.03F  
BALTIMORE MOCLDY 78 75 90 W3 30.02F  
WASHINGTON DC CLOUDY 83 71 67 SW8 30.03F  
 

 
 
 
CLICK HERE TO GO TO PREVIOUS BULLETINS.

The Nexlab PA Page
The Nexlab NJ Page
The Nexlab DE Page
The Nexlab MD Page Main Text Page